User: anonymous   Login
Location: Unspecified
(0.0000°N, 0.0000°E)
Time: 21:18:27
(UTC+00:00)
Language:

CICERO 7 - Orbit

View from above orbital plane
View from above orbital plane
View from above satellite
View from above satellite

Ground track
Ground track

The orbit data is extracted from the following two-line orbital elements,

1 43143U 18004AJ  19046.72681700  .00001214  00000-0  53308-4 0  9990
2 43143  97.5032 115.0445 0007036 347.0016  13.1038 15.23868542 60804
Epoch (UTC): 15 February 2019 17:26:36
Eccentricity: 0.0007036
inclination: 97.5032°
perigee height: 489 km
apogee height: 499 km
right ascension of ascending node: 115.0445°
argument of perigee: 347.0016°
revolutions per day: 15.23868542
mean anomaly at epoch: 13.1038°
orbit number at epoch: 6080

The dashed part of the orbit path shows where the satellite is in the earth's shadow,  

DLR